• în România
  • Lista ţărilor
  • Pe 7 zile
  • Temperatura apei
  • Hartă satelitară
  • Meteo pe hartă
  • Widget-uri
  • user-avatar
    Intrare

    Meteo pe oră la Rogovo

    Astăzi, 19 Aprilie, Joi

    Timp Temperatura Precipitaţii Vânt Presiune Umiditate
    00:00 +6°C° 0,4 mm 5 m/s 738 mmHg 92%
    01:00 +6°C° 0,4 mm 5 m/s 738 mmHg 92%
    02:00 +7°C° 0 mm 3 m/s 738 mmHg 92%
    03:00 +6°C° 0,5 mm 4 m/s 738 mmHg 92%
    04:00 +5°C° 0,5 mm 4 m/s 738 mmHg 92%
    05:00 +5°C° 0,5 mm 5 m/s 738 mmHg 93%
    06:00 +5°C° 0,6 mm 5 m/s 738 mmHg 92%
    07:00 +5°C° 0,6 mm 4 m/s 738 mmHg 92%
    08:00 +5°C° 0,6 mm 4 m/s 738 mmHg 92%
    09:00 +5°C° 0,5 mm 4 m/s 738 mmHg 91%
    10:00 +5°C° 0,5 mm 4 m/s 739 mmHg 91%
    11:00 +6°C° 0,5 mm 4 m/s 739 mmHg 90%
    12:00 +6°C° 0,2 mm 4 m/s 739 mmHg 88%
    13:00 +7°C° 0,2 mm 4 m/s 739 mmHg 86%
    14:00 +8°C° 0,2 mm 4 m/s 739 mmHg 84%
    15:00 +8°C° 0 mm 4 m/s 740 mmHg 80%
    16:00 +10°C° 0 mm 4 m/s 740 mmHg 76%
    17:00 +11°C° 0 mm 4 m/s 740 mmHg 72%
    18:00 +10°C° 0 mm 4 m/s 741 mmHg 75%
    19:00 +9°C° 0 mm 3 m/s 741 mmHg 78%
    20:00 +8°C° 0 mm 3 m/s 741 mmHg 80%
    21:00 +7°C° 0 mm 3 m/s 742 mmHg 82%
    22:00 +5°C° 0 mm 3 m/s 742 mmHg 84%
    23:00 +5°C° 0 mm 3 m/s 742 mmHg 86%

    Mâine, 20 Aprilie, Vineri

    Timp Temperatura Precipitaţii Vânt Presiune Umiditate
    00:00 +4°C° 0 mm 3 m/s 742 mmHg 88%
    01:00 +4°C° 0 mm 3 m/s 743 mmHg 91%
    02:00 +4°C° 0 mm 3 m/s 743 mmHg 94%
    03:00 +3°C° 0 mm 3 m/s 743 mmHg 95%
    04:00 +3°C° 0 mm 3 m/s 743 mmHg 95%
    05:00 +3°C° 0 mm 3 m/s 743 mmHg 95%
    06:00 +4°C° 0 mm 3 m/s 744 mmHg 91%
    07:00 +5°C° 0 mm 3 m/s 744 mmHg 86%
    08:00 +6°C° 0 mm 4 m/s 744 mmHg 82%
    09:00 +8°C° 0 mm 3 m/s 744 mmHg 77%
    10:00 +9°C° 0 mm 3 m/s 744 mmHg 71%
    11:00 +10°C° 0 mm 2 m/s 744 mmHg 66%
    12:00 +10°C° 0 mm 2 m/s 744 mmHg 64%
    13:00 +12°C° 0 mm 2 m/s 744 mmHg 62%
    14:00 +12°C° 0 mm 2 m/s 744 mmHg 60%
    15:00 +12°C° 0 mm 2 m/s 743 mmHg 60%
    16:00 +12°C° 0 mm 2 m/s 743 mmHg 61%
    17:00 +13°C° 0 mm 2 m/s 742 mmHg 61%
    18:00 +10°C° 0 mm 2 m/s 742 mmHg 68%
    19:00 +9°C° 0 mm 2 m/s 741 mmHg 75%
    20:00 +7°C° 0 mm 2 m/s 740 mmHg 82%
    21:00 +8°C° 0 mm 3 m/s 739 mmHg 81%
    22:00 +8°C° 0 mm 3 m/s 739 mmHg 79%
    23:00 +7°C° 0 mm 4 m/s 738 mmHg 78%

    Poimâine, 21 Aprilie, Sâmbătă

    Timp Temperatura Precipitaţii Vânt Presiune Umiditate
    00:00 +7°C° 0 mm 4 m/s 737 mmHg 80%
    01:00 +8°C° 0 mm 4 m/s 736 mmHg 83%
    02:00 +8°C° 0 mm 4 m/s 735 mmHg 85%
    03:00 +8°C° 0 mm 4 m/s 734 mmHg 87%
    04:00 +8°C° 0 mm 5 m/s 733 mmHg 89%
    05:00 +8°C° 0 mm 5 m/s 732 mmHg 91%
    06:00 +8°C° 0,1 mm 5 m/s 731 mmHg 87%
    07:00 +9°C° 0,1 mm 6 m/s 730 mmHg 83%
    08:00 +10°C° 0,1 mm 6 m/s 729 mmHg 78%
    09:00 +10°C° 0,2 mm 6 m/s 729 mmHg 80%
    10:00 +10°C° 0,2 mm 6 m/s 728 mmHg 81%
    11:00 +11°C° 0,2 mm 7 m/s 727 mmHg 82%
    12:00 +10°C° 0,2 mm 7 m/s 727 mmHg 77%
    13:00 +10°C° 0,2 mm 8 m/s 728 mmHg 71%
    14:00 +9°C° 0,2 mm 8 m/s 728 mmHg 66%
    15:00 +9°C° 0 mm 7 m/s 728 mmHg 63%
    16:00 +9°C° 0 mm 7 m/s 729 mmHg 61%
    17:00 +9°C° 0 mm 7 m/s 729 mmHg 58%
    18:00 +8°C° 0,1 mm 6 m/s 729 mmHg 65%
    19:00 +7°C° 0,1 mm 5 m/s 730 mmHg 71%
    20:00 +6°C° 0,1 mm 4 m/s 730 mmHg 78%
    21:00 +5°C° 0,1 mm 4 m/s 730 mmHg 80%
    22:00 +5°C° 0,1 mm 4 m/s 731 mmHg 81%
    23:00 +5°C° 0,1 mm 4 m/s 731 mmHg 83%

    22 Aprilie, Duminică

    Timp Temperatura Precipitaţii Vânt Presiune Umiditate
    00:00 +5°C° 0,1 mm 4 m/s 731 mmHg 83%
    01:00 +4°C° 0,1 mm 4 m/s 732 mmHg 84%
    02:00 +4°C° 0,1 mm 4 m/s 732 mmHg 84%
    03:00 +4°C° 0,1 mm 4 m/s 732 mmHg 85%
    04:00 +4°C° 0,1 mm 4 m/s 732 mmHg 86%
    05:00 +3°C° 0,1 mm 4 m/s 732 mmHg 87%
    06:00 +4°C° 0,2 mm 4 m/s 733 mmHg 85%
    07:00 +4°C° 0,2 mm 3 m/s 733 mmHg 83%
    08:00 +4°C° 0,2 mm 3 m/s 733 mmHg 81%
    09:00 +5°C° 0,2 mm 3 m/s 733 mmHg 79%
    10:00 +5°C° 0,2 mm 4 m/s 733 mmHg 77%
    11:00 +6°C° 0,2 mm 4 m/s 733 mmHg 75%
    12:00 +6°C° 0,4 mm 4 m/s 733 mmHg 74%
    13:00 +7°C° 0,4 mm 4 m/s 733 mmHg 73%
    14:00 +7°C° 0,4 mm 4 m/s 734 mmHg 72%
    15:00 +7°C° 0,3 mm 4 m/s 734 mmHg 73%
    16:00 +7°C° 0,3 mm 3 m/s 734 mmHg 74%
    17:00 +7°C° 0,3 mm 3 m/s 734 mmHg 76%
    18:00 +6°C° 0,1 mm 2 m/s 734 mmHg 79%
    19:00 +5°C° 0,1 mm 2 m/s 735 mmHg 83%
    20:00 +5°C° 0,1 mm 1 m/s 735 mmHg 87%
    21:00 +4°C° 0 mm 1 m/s 736 mmHg 88%
    22:00 +4°C° 0 mm 1 m/s 736 mmHg 88%
    23:00 +3°C° 0 mm 1 m/s 736 mmHg 88%

    23 Aprilie, Luni

    Timp Temperatura Precipitaţii Vânt Presiune Umiditate
    00:00 +2°C° 0 mm 1 m/s 736 mmHg 87%
    01:00 +2°C° 0 mm 1 m/s 737 mmHg 87%
    02:00 +2°C° 0 mm 1 m/s 737 mmHg 86%
    03:00 +1°C° 0 mm 1 m/s 737 mmHg 86%
    04:00 +1°C° 0 mm 1 m/s 738 mmHg 85%
    05:00 0°C° 0 mm 1 m/s 738 mmHg 85%
    06:00 +2°C° 0 mm 1 m/s 738 mmHg 77%
    07:00 +4°C° 0 mm 1 m/s 738 mmHg 69%
    08:00 +5°C° 0 mm 1 m/s 739 mmHg 61%
    09:00 +7°C° 0 mm 1 m/s 739 mmHg 55%
    10:00 +9°C° 0 mm 1 m/s 739 mmHg 49%
    11:00 +10°C° 0 mm 1 m/s 739 mmHg 44%
    12:00 +11°C° 0 mm 1 m/s 739 mmHg 41%
    13:00 +11°C° 0 mm 1 m/s 739 mmHg 39%
    14:00 +12°C° 0 mm 1 m/s 738 mmHg 37%
    15:00 +11°C° 0 mm 1 m/s 738 mmHg 38%
    16:00 +11°C° 0 mm 1 m/s 738 mmHg 39%
    17:00 +9°C° 0 mm 0 m/s 738 mmHg 39%
    18:00 +9°C° 0 mm 1 m/s 737 mmHg 45%
    19:00 +7°C° 0 mm 1 m/s 737 mmHg 51%
    20:00 +5°C° 0 mm 1 m/s 737 mmHg 57%
    21:00 +5°C° 0 mm 1 m/s 737 mmHg 59%
    22:00 +4°C° 0 mm 1 m/s 737 mmHg 62%
    23:00 +4°C° 0 mm 1 m/s 737 mmHg 64%

    24 Aprilie, Marţi

    Timp Temperatura Precipitaţii Vânt Presiune Umiditate
    00:00 +2°C° 0 mm 2 m/s 737 mmHg 67%
    01:00 +2°C° 0 mm 2 m/s 736 mmHg 69%
    02:00 +2°C° 0 mm 2 m/s 736 mmHg 72%
    03:00 +2°C° 0 mm 2 m/s 736 mmHg 74%
    04:00 +2°C° 0 mm 2 m/s 735 mmHg 77%
    05:00 +1°C° 0 mm 3 m/s 735 mmHg 79%
    06:00 +2°C° 0 mm 3 m/s 735 mmHg 74%
    07:00 +4°C° 0 mm 3 m/s 735 mmHg 70%
    08:00 +5°C° 0 mm 4 m/s 734 mmHg 65%
    09:00 +6°C° 0,2 mm 4 m/s 734 mmHg 66%
    10:00 +7°C° 0,2 mm 4 m/s 734 mmHg 66%
    11:00 +7°C° 0,2 mm 5 m/s 733 mmHg 67%
    12:00 +7°C° 0,2 mm 5 m/s 733 mmHg 69%
    13:00 +8°C° 0,2 mm 4 m/s 733 mmHg 71%
    14:00 +8°C° 0,2 mm 4 m/s 732 mmHg 72%
    15:00 +7°C° 0,4 mm 4 m/s 732 mmHg 76%
    16:00 +6°C° 0,4 mm 4 m/s 732 mmHg 80%
    17:00 +7°C° 0,4 mm 3 m/s 731 mmHg 84%
    18:00 +5°C° 0,8 mm 3 m/s 731 mmHg 86%
    19:00 +5°C° 0,8 mm 3 m/s 731 mmHg 89%
    20:00 +5°C° 0,8 mm 3 m/s 731 mmHg 91%
    21:00 +5°C° 0,5 mm 3 m/s 730 mmHg 92%
    22:00 +4°C° 0,5 mm 3 m/s 730 mmHg 93%
    23:00 +4°C° 0,5 mm 3 m/s 730 mmHg 94%
    Arată mai mult